Home   Weather   Wagga Wagga   Past weeks

Flag for Australia Past Weather in Wagga Wagga, New South Wales, Australia — Yesterday and Last 2 Weeks

Now
46 °F

Sunny.


Feels Like: 42 °F
Forecast: 38 / 61 °F
Wind: 8 mph from East

Location: Wagga Airport

Current Time: Aug 21, 2017 at 11:06:39 am

Latest Report: Aug 21, 2017 at 10:00 am


Visibility: 10 mi

Pressure: 30.04 "Hg

Humidity: 66%

Dew Point: 36 °F

Location of Wagga WaggaLocation

Past Weather in Wagga Wagga — Graph

°F

Wagga Wagga Temperature Yesterday

Maximum temperature yesterday: 55 °F (at 3:00 pm)
Minimum temperature yesterday: 28 °F (at 6:00 am)
Average temperature yesterday: 40 °F

High & Low Weather Summary for the Past Weeks

 TemperatureHumidityPressure
High66 °F (Aug 14, 2:00 pm)100% (Aug 6, 8:00 pm)30.30 "Hg (Aug 6, 8:00 pm)
Low28 °F (Aug 20, 6:00 am)37% (Aug 14, 3:00 pm)29.56 "Hg (Aug 16, 2:00 am)
Average47 °F80%29.99 "Hg
* Reported Aug 6 9:00 am — Aug 21 9:00 am, Wagga Wagga. Weather by CustomWeather, © 2017

Note: Actual official high and low records may vary slightly from our data, if they occured in-between our weather recording intervals... More about our weather records

Advertising

Wagga Wagga Weather History for the Previous 24 Hours

Scroll right to see more
 ConditionsComfort  
Time TempWeatherWind HumidityBarometerVisibility
9:00 am
Mon, Aug 21
45 °FSunny.8 mph66%30.04 "Hg10 mi
8:00 am41 °FSunny.7 mph76%30.07 "Hg10 mi
7:00 am41 °FOvercast.6 mph76%30.07 "HgN/A
6:00 am41 °FMostly cloudy.7 mph76%30.04 "HgN/A
5:00 am39 °FMostly cloudy.8 mph81%30.07 "HgN/A
4:00 am39 °FPassing clouds.5 mph81%30.07 "HgN/A
3:00 am41 °FOvercast.9 mph76%30.07 "HgN/A
2:00 am41 °FClear.8 mph76%30.09 "HgN/A
1:00 am39 °FClear.7 mph75%30.09 "HgN/A
12:00 am41 °FClear.7 mph70%30.09 "HgN/A
11:00 pm
Sun, Aug 20
37 °FClear.7 mph81%30.09 "HgN/A
10:00 pm34 °FClear.No wind87%30.12 "HgN/A
9:00 pm37 °FClear.6 mph75%30.12 "HgN/A
8:00 pm36 °FClear.No wind81%30.15 "HgN/A
7:00 pm41 °FClear.No wind76%30.12 "HgN/A
6:00 pm46 °FClear.No wind50%30.12 "HgN/A
5:00 pm52 °FSunny.5 mph44%30.12 "HgN/A
4:00 pm54 °FSunny.5 mph44%30.12 "HgN/A
3:00 pm55 °FSunny.2 mph41%30.15 "HgN/A
2:00 pm54 °FSunny.6 mph51%30.18 "HgN/A
1:00 pm52 °FSunny.5 mph54%30.21 "HgN/A
12:00 pm48 °FSunny.3 mph58%30.24 "HgN/A
11:00 am46 °FSunny.6 mph57%30.30 "HgN/A
Weather by CustomWeather, © 2017

See weather overviewHow to use our weather pages